Year,Month,Day,Hour,Minute,Value (Times are PST for temperature in C)
2013,07,18,07,21,15.60
2013,07,18,07,22,15.60
2013,07,18,07,23,15.60
2013,07,18,07,24,15.60
2013,07,18,07,25,15.60
2013,07,18,07,26,15.60
2013,07,18,07,27,15.70
2013,07,18,07,28,15.70
2013,07,18,07,29,15.70
2013,07,18,07,30,15.70
2013,07,18,07,31,15.70
2013,07,18,07,32,15.70
2013,07,18,07,33,15.70
2013,07,18,07,34,15.70
2013,07,18,07,35,15.80
2013,07,18,07,36,15.80
2013,07,18,07,37,15.80
2013,07,18,07,38,15.80
2013,07,18,07,39,15.80
2013,07,18,07,40,15.80
2013,07,18,07,41,15.80
2013,07,18,07,42,15.80
2013,07,18,07,43,15.80
2013,07,18,07,44,15.80
2013,07,18,07,45,15.80
2013,07,18,07,46,15.90
2013,07,18,07,47,15.90
2013,07,18,07,48,15.90
2013,07,18,07,49,15.90
2013,07,18,07,50,15.90
2013,07,18,07,51,15.80
2013,07,18,07,52,15.80
2013,07,18,07,53,15.80
2013,07,18,07,54,15.80
2013,07,18,07,55,15.70
2013,07,18,07,56,15.80
2013,07,18,07,57,15.80
2013,07,18,07,58,15.80
2013,07,18,07,59,15.80
2013,07,18,08,00,15.80
2013,07,18,08,01,15.80
2013,07,18,08,02,15.80
2013,07,18,08,03,15.80
2013,07,18,08,04,15.80
2013,07,18,08,05,15.90
2013,07,18,08,06,15.90
2013,07,18,08,07,16.10
2013,07,18,08,08,16.10
2013,07,18,08,09,16.20
2013,07,18,08,10,16.20
2013,07,18,08,11,16.20
2013,07,18,08,12,16.30
2013,07,18,08,13,16.30
2013,07,18,08,14,16.40
2013,07,18,08,15,16.40
2013,07,18,08,16,16.40
2013,07,18,08,17,16.40
2013,07,18,08,18,16.40
2013,07,18,08,19,16.40
2013,07,18,08,20,16.40
2013,07,18,08,21,16.50
2013,07,18,08,22,16.60
2013,07,18,08,23,16.60
2013,07,18,08,24,16.60
2013,07,18,08,25,16.60
2013,07,18,08,26,16.60
2013,07,18,08,27,16.70
2013,07,18,08,28,16.70
2013,07,18,08,29,16.80
2013,07,18,08,30,16.80
2013,07,18,08,31,16.90
2013,07,18,08,32,17.00
2013,07,18,08,33,16.90
2013,07,18,08,34,16.90
2013,07,18,08,35,16.90
2013,07,18,08,36,16.90
2013,07,18,08,37,16.90
2013,07,18,08,38,16.90
2013,07,18,08,39,17.00
2013,07,18,08,40,17.00
2013,07,18,08,41,17.10
2013,07,18,08,42,17.20
2013,07,18,08,43,17.20
2013,07,18,08,44,17.30
2013,07,18,08,45,17.30
2013,07,18,08,46,17.40
2013,07,18,08,47,17.40
2013,07,18,08,48,17.50
2013,07,18,08,49,17.50
2013,07,18,08,50,17.50
2013,07,18,08,51,17.50
2013,07,18,08,52,17.60
2013,07,18,08,53,17.60
2013,07,18,08,54,17.60
2013,07,18,08,55,17.60
2013,07,18,08,56,17.60
2013,07,18,08,57,17.70
2013,07,18,08,58,17.70
2013,07,18,08,59,17.80
2013,07,18,09,00,17.80
2013,07,18,09,01,17.90
2013,07,18,09,02,17.90
2013,07,18,09,03,17.90
2013,07,18,09,04,18.00
2013,07,18,09,05,18.10
2013,07,18,09,06,18.10
2013,07,18,09,07,18.20
2013,07,18,09,08,18.20
2013,07,18,09,09,18.20
2013,07,18,09,10,18.20
2013,07,18,09,11,18.20
2013,07,18,09,12,18.20
2013,07,18,09,13,18.20
2013,07,18,09,14,18.20
2013,07,18,09,15,18.20
2013,07,18,09,16,18.20
2013,07,18,09,17,18.30
2013,07,18,09,18,18.30
2013,07,18,09,19,18.30
2013,07,18,09,20,18.40
2013,07,18,09,21,18.40
2013,07,18,09,22,18.40
2013,07,18,09,23,18.40
2013,07,18,09,24,18.40
2013,07,18,09,25,18.40
2013,07,18,09,26,18.40
2013,07,18,09,27,18.40
2013,07,18,09,28,18.40
2013,07,18,09,29,18.40
2013,07,18,09,30,18.40
2013,07,18,09,31,18.40
2013,07,18,09,32,18.30
2013,07,18,09,33,18.30
2013,07,18,09,34,18.20
2013,07,18,09,35,18.20
2013,07,18,09,36,18.20
2013,07,18,09,37,18.20
2013,07,18,09,38,18.20
2013,07,18,09,39,18.20
2013,07,18,09,40,18.30
2013,07,18,09,41,18.30
2013,07,18,09,42,18.40
2013,07,18,09,43,18.50
2013,07,18,09,44,18.60
2013,07,18,09,45,18.60
2013,07,18,09,46,18.70
2013,07,18,09,47,18.70
2013,07,18,09,48,18.70
2013,07,18,09,49,18.80
2013,07,18,09,50,18.80
2013,07,18,09,51,18.70
2013,07,18,09,52,18.60
2013,07,18,09,53,18.60
2013,07,18,09,54,18.60
2013,07,18,09,55,18.60
2013,07,18,09,56,18.70
2013,07,18,09,57,18.70
2013,07,18,09,58,18.80
2013,07,18,09,59,18.80
2013,07,18,10,00,18.80
2013,07,18,10,01,18.80
2013,07,18,10,02,18.90
2013,07,18,10,03,18.90
2013,07,18,10,04,18.90
2013,07,18,10,05,18.90
2013,07,18,10,06,18.90
2013,07,18,10,07,19.00
2013,07,18,10,08,19.10
2013,07,18,10,09,19.10
2013,07,18,10,10,19.10
2013,07,18,10,11,19.10
2013,07,18,10,12,19.10
2013,07,18,10,13,19.10
2013,07,18,10,14,19.10
2013,07,18,10,15,19.20
2013,07,18,10,16,19.30
2013,07,18,10,17,19.30
2013,07,18,10,18,19.30
2013,07,18,10,19,19.30
2013,07,18,10,20,19.30
2013,07,18,10,21,19.40
2013,07,18,10,22,19.30
2013,07,18,10,23,19.30
2013,07,18,10,24,19.30
2013,07,18,10,25,19.20
2013,07,18,10,26,19.20
2013,07,18,10,27,19.20
2013,07,18,10,28,19.20
2013,07,18,10,29,19.20
2013,07,18,10,30,19.20
2013,07,18,10,31,19.20
2013,07,18,10,32,19.10
2013,07,18,10,33,19.10
2013,07,18,10,34,19.10
2013,07,18,10,35,19.10
2013,07,18,10,36,19.10
2013,07,18,10,37,19.10
2013,07,18,10,38,19.10
2013,07,18,10,39,19.10
2013,07,18,10,40,19.10
2013,07,18,10,41,19.10
2013,07,18,10,42,19.10
2013,07,18,10,43,19.10
2013,07,18,10,44,19.10
2013,07,18,10,45,19.10
2013,07,18,10,46,19.10
2013,07,18,10,47,19.20
2013,07,18,10,48,19.20
2013,07,18,10,49,19.30
2013,07,18,10,50,19.30
2013,07,18,10,51,19.40
2013,07,18,10,52,19.50
2013,07,18,10,53,19.60
2013,07,18,10,54,19.70
2013,07,18,10,55,19.70
2013,07,18,10,56,19.80
2013,07,18,10,57,19.80
2013,07,18,10,58,19.70
2013,07,18,10,59,19.70
2013,07,18,11,00,19.70
2013,07,18,11,01,19.70
2013,07,18,11,02,19.80
2013,07,18,11,03,19.80
2013,07,18,11,04,19.80
2013,07,18,11,05,19.80
2013,07,18,11,06,19.90
2013,07,18,11,07,19.90
2013,07,18,11,08,19.90
2013,07,18,11,09,19.80
2013,07,18,11,10,19.70
2013,07,18,11,11,19.60
2013,07,18,11,12,19.50
2013,07,18,11,13,19.60
2013,07,18,11,14,19.70
2013,07,18,11,15,19.80
2013,07,18,11,16,19.90
2013,07,18,11,17,20.00
2013,07,18,11,18,20.10
2013,07,18,11,19,20.20
2013,07,18,11,20,20.30
2013,07,18,11,21,20.40
2013,07,18,11,22,20.50
2013,07,18,11,23,20.60
2013,07,18,11,24,20.70
2013,07,18,11,25,20.70
2013,07,18,11,26,20.70
2013,07,18,11,27,20.70
2013,07,18,11,28,20.50
2013,07,18,11,29,20.40
2013,07,18,11,30,20.20
2013,07,18,11,31,20.20
2013,07,18,11,32,20.10
2013,07,18,11,33,20.10
2013,07,18,11,34,20.10
2013,07,18,11,35,20.10
2013,07,18,11,36,20.10
2013,07,18,11,37,20.10
2013,07,18,11,38,20.20
2013,07,18,11,39,20.20
2013,07,18,11,40,20.20
2013,07,18,11,41,20.20
2013,07,18,11,42,20.20
2013,07,18,11,43,20.20
2013,07,18,11,44,20.10
2013,07,18,11,45,20.10
2013,07,18,11,46,20.10
2013,07,18,11,47,20.10
2013,07,18,11,48,20.10
2013,07,18,11,49,20.10
2013,07,18,11,50,20.20
2013,07,18,11,51,20.20
2013,07,18,11,52,20.20
2013,07,18,11,53,20.20
2013,07,18,11,54,20.30
2013,07,18,11,55,20.30
2013,07,18,11,56,20.20
2013,07,18,11,57,20.20
2013,07,18,11,58,20.20
2013,07,18,11,59,20.30
2013,07,18,12,00,20.40
2013,07,18,12,01,20.40
2013,07,18,12,02,20.40
2013,07,18,12,03,20.30
2013,07,18,12,04,20.30
2013,07,18,12,05,20.40
2013,07,18,12,06,20.40
2013,07,18,12,07,20.50
2013,07,18,12,08,20.50
2013,07,18,12,09,20.50
2013,07,18,12,10,20.50
2013,07,18,12,11,20.40
2013,07,18,12,12,20.40
2013,07,18,12,13,20.40
2013,07,18,12,14,20.50
2013,07,18,12,15,20.50
2013,07,18,12,16,20.70
2013,07,18,12,17,20.80
2013,07,18,12,18,20.90
2013,07,18,12,19,20.90
2013,07,18,12,20,20.90
2013,07,18,12,21,20.80
2013,07,18,12,22,20.70
2013,07,18,12,23,20.60
2013,07,18,12,24,20.60
2013,07,18,12,25,20.50
2013,07,18,12,26,20.50
2013,07,18,12,27,20.50
2013,07,18,12,28,20.40
2013,07,18,12,29,20.40
2013,07,18,12,30,20.40
2013,07,18,12,31,20.40
2013,07,18,12,32,20.50
2013,07,18,12,33,20.50
2013,07,18,12,34,20.50
2013,07,18,12,35,20.50
2013,07,18,12,36,20.60
2013,07,18,12,37,20.70
2013,07,18,12,38,20.70
2013,07,18,12,39,20.80
2013,07,18,12,40,20.80
2013,07,18,12,41,20.90
2013,07,18,12,42,21.00
2013,07,18,12,43,21.00
2013,07,18,12,44,21.00
2013,07,18,12,45,21.10
2013,07,18,12,46,21.20
2013,07,18,12,47,21.20
2013,07,18,12,48,21.20
2013,07,18,12,49,21.20
2013,07,18,12,50,21.30
2013,07,18,12,51,21.30
2013,07,18,12,52,21.40
2013,07,18,12,53,21.40
2013,07,18,12,54,21.40
2013,07,18,12,55,21.40
2013,07,18,12,56,21.50
2013,07,18,12,57,21.60
2013,07,18,12,58,21.60
2013,07,18,12,59,21.50
2013,07,18,13,00,21.40
2013,07,18,13,01,21.40
2013,07,18,13,02,21.40
2013,07,18,13,03,21.40
2013,07,18,13,04,21.30
2013,07,18,13,05,21.30
2013,07,18,13,06,21.30
2013,07,18,13,07,21.30
2013,07,18,13,08,21.30
2013,07,18,13,09,21.30
2013,07,18,13,10,21.30
2013,07,18,13,11,21.30
2013,07,18,13,12,21.30
2013,07,18,13,13,21.30
2013,07,18,13,14,21.40
2013,07,18,13,15,21.50
2013,07,18,13,16,21.60
2013,07,18,13,17,21.80
2013,07,18,13,18,21.80
2013,07,18,13,19,21.80
2013,07,18,13,20,21.80
2013,07,18,13,21,21.80
2013,07,18,13,22,21.90
2013,07,18,13,23,21.90
2013,07,18,13,24,22.00
2013,07,18,13,25,22.10
2013,07,18,13,26,22.20
2013,07,18,13,27,22.20
2013,07,18,13,28,22.30
2013,07,18,13,29,22.20
2013,07,18,13,30,22.10
2013,07,18,13,31,22.00
2013,07,18,13,32,21.90
2013,07,18,13,33,21.90
2013,07,18,13,34,21.90
2013,07,18,13,35,21.90
2013,07,18,13,36,21.80
2013,07,18,13,37,21.80
2013,07,18,13,38,21.70
2013,07,18,13,39,21.80
2013,07,18,13,40,21.80
2013,07,18,13,41,21.90
2013,07,18,13,42,21.90
2013,07,18,13,43,22.00
2013,07,18,13,44,22.00
2013,07,18,13,45,22.10
2013,07,18,13,46,22.10
2013,07,18,13,47,22.20
2013,07,18,13,48,22.20
2013,07,18,13,49,22.20
2013,07,18,13,50,22.10
2013,07,18,13,51,22.10
2013,07,18,13,52,22.10
2013,07,18,13,53,22.20
2013,07,18,13,54,22.20
2013,07,18,13,55,22.20
2013,07,18,13,56,22.30
2013,07,18,13,57,22.30
2013,07,18,13,58,22.40
2013,07,18,13,59,22.40
2013,07,18,14,00,22.50
2013,07,18,14,01,22.60
2013,07,18,14,02,22.60
2013,07,18,14,03,22.50
2013,07,18,14,04,22.50
2013,07,18,14,05,22.50
2013,07,18,14,06,22.50
2013,07,18,14,07,22.50
2013,07,18,14,08,22.50
2013,07,18,14,09,22.50
2013,07,18,14,10,22.60
2013,07,18,14,11,22.60
2013,07,18,14,12,22.50
2013,07,18,14,13,22.50
2013,07,18,14,14,22.40
2013,07,18,14,15,22.40
2013,07,18,14,16,22.20
2013,07,18,14,17,22.20
2013,07,18,14,18,22.20
2013,07,18,14,19,22.20
2013,07,18,14,20,22.10
2013,07,18,14,21,22.10
2013,07,18,14,22,22.00
2013,07,18,14,23,22.00
2013,07,18,14,24,22.10
2013,07,18,14,25,22.10
2013,07,18,14,26,22.10
2013,07,18,14,27,22.10
2013,07,18,14,28,22.10
2013,07,18,14,29,22.10
2013,07,18,14,30,22.20
2013,07,18,14,31,22.40
2013,07,18,14,32,22.40
2013,07,18,14,33,22.30
2013,07,18,14,34,22.30
2013,07,18,14,35,22.30
2013,07,18,14,36,22.20
2013,07,18,14,37,22.30
2013,07,18,14,38,22.40
2013,07,18,14,39,22.40
2013,07,18,14,40,22.50
2013,07,18,14,41,22.50
2013,07,18,14,42,22.60
2013,07,18,14,43,22.70
2013,07,18,14,44,22.80
2013,07,18,14,45,22.80
2013,07,18,14,46,22.90
2013,07,18,14,47,22.90
2013,07,18,14,48,22.90
2013,07,18,14,49,22.90
2013,07,18,14,50,22.90
2013,07,18,14,51,22.90
2013,07,18,14,52,22.80
2013,07,18,14,53,22.80
2013,07,18,14,54,22.80
2013,07,18,14,55,22.90
2013,07,18,14,56,22.90
2013,07,18,14,57,22.90
2013,07,18,14,58,22.90
2013,07,18,14,59,23.00
2013,07,18,15,00,23.10
2013,07,18,15,01,23.10
2013,07,18,15,02,23.00
2013,07,18,15,03,22.90
2013,07,18,15,04,22.80
2013,07,18,15,05,22.70
2013,07,18,15,06,22.60
2013,07,18,15,07,22.60
2013,07,18,15,08,22.50
2013,07,18,15,09,22.50
2013,07,18,15,10,22.40
2013,07,18,15,11,22.30
2013,07,18,15,12,22.10
2013,07,18,15,13,22.00
2013,07,18,15,14,21.90
2013,07,18,15,15,21.90
2013,07,18,15,16,21.90
2013,07,18,15,17,21.90
2013,07,18,15,18,21.80
2013,07,18,15,19,21.80
2013,07,18,15,20,21.80
2013,07,18,15,21,21.70
2013,07,18,15,22,21.70
2013,07,18,15,23,21.60
2013,07,18,15,24,21.60
2013,07,18,15,25,21.60
2013,07,18,15,26,21.60
2013,07,18,15,27,21.60
2013,07,18,15,28,21.60
2013,07,18,15,29,21.60
2013,07,18,15,30,21.70
2013,07,18,15,31,21.70
2013,07,18,15,32,21.80
2013,07,18,15,33,21.80
2013,07,18,15,34,21.90
2013,07,18,15,35,22.00
2013,07,18,15,36,22.00
2013,07,18,15,37,22.10
2013,07,18,15,38,22.00
2013,07,18,15,39,22.00
2013,07,18,15,40,22.00
2013,07,18,15,41,22.10
2013,07,18,15,42,22.10
2013,07,18,15,43,22.10
2013,07,18,15,44,22.00
2013,07,18,15,45,21.90
2013,07,18,15,46,21.90
2013,07,18,15,47,21.80
2013,07,18,15,48,21.60
2013,07,18,15,49,21.60
2013,07,18,15,50,21.50
2013,07,18,15,51,21.50
2013,07,18,15,52,21.60
2013,07,18,15,53,21.60
2013,07,18,15,54,21.60
2013,07,18,15,55,21.60
2013,07,18,15,56,21.60
2013,07,18,15,57,21.50
2013,07,18,15,58,21.50
2013,07,18,15,59,21.60
2013,07,18,16,00,21.60
2013,07,18,16,01,21.60
2013,07,18,16,02,21.60
2013,07,18,16,03,21.60
2013,07,18,16,04,21.60
2013,07,18,16,05,21.60
2013,07,18,16,06,21.60
2013,07,18,16,07,21.60
2013,07,18,16,08,21.60
2013,07,18,16,09,21.60
2013,07,18,16,10,21.50
2013,07,18,16,11,21.50
2013,07,18,16,12,21.60
2013,07,18,16,13,21.60
2013,07,18,16,14,21.60
2013,07,18,16,15,21.60
2013,07,18,16,16,21.60
2013,07,18,16,17,21.60
2013,07,18,16,18,21.60
2013,07,18,16,19,21.60
2013,07,18,16,20,21.60
2013,07,18,16,21,21.60
2013,07,18,16,22,21.60
2013,07,18,16,23,21.60
2013,07,18,16,24,21.70
2013,07,18,16,25,21.80
2013,07,18,16,26,21.80
2013,07,18,16,27,21.70
2013,07,18,16,28,21.70
2013,07,18,16,29,21.70
2013,07,18,16,30,21.80
2013,07,18,16,31,21.80
2013,07,18,16,32,21.80
2013,07,18,16,33,21.80
2013,07,18,16,34,21.70
2013,07,18,16,35,21.70
2013,07,18,16,36,21.70
2013,07,18,16,37,21.80
2013,07,18,16,38,21.90
2013,07,18,16,39,21.90
2013,07,18,16,40,21.90
2013,07,18,16,41,21.90
2013,07,18,16,42,21.90
2013,07,18,16,43,21.90
2013,07,18,16,44,21.90
2013,07,18,16,45,21.80
2013,07,18,16,46,21.70
2013,07,18,16,47,21.70
2013,07,18,16,48,21.70
2013,07,18,16,49,21.70
2013,07,18,16,50,21.70
2013,07,18,16,51,21.80
2013,07,18,16,52,21.90
2013,07,18,16,53,21.90
2013,07,18,16,54,22.00
2013,07,18,16,55,22.00
2013,07,18,16,56,22.00
2013,07,18,16,57,22.00
2013,07,18,16,58,22.00
2013,07,18,16,59,21.90
2013,07,18,17,00,22.00
2013,07,18,17,01,22.00
2013,07,18,17,02,22.00
2013,07,18,17,03,22.00
2013,07,18,17,04,21.90
2013,07,18,17,05,21.80
2013,07,18,17,06,21.80
2013,07,18,17,07,21.70
2013,07,18,17,08,21.70
2013,07,18,17,09,21.70
2013,07,18,17,10,21.60
2013,07,18,17,11,21.60
2013,07,18,17,12,21.60
2013,07,18,17,13,21.50
2013,07,18,17,14,21.40
2013,07,18,17,15,21.40
2013,07,18,17,16,21.30
2013,07,18,17,17,21.30
2013,07,18,17,18,21.40
2013,07,18,17,19,21.40
2013,07,18,17,20,21.50
2013,07,18,17,21,21.60
2013,07,18,17,22,21.60
2013,07,18,17,23,21.60
2013,07,18,17,24,21.70
2013,07,18,17,25,21.70
2013,07,18,17,26,21.70
2013,07,18,17,27,21.70
2013,07,18,17,28,21.60
2013,07,18,17,29,21.60
2013,07,18,17,30,21.60
2013,07,18,17,31,21.50
2013,07,18,17,32,21.40
2013,07,18,17,33,21.40
2013,07,18,17,34,21.30
2013,07,18,17,35,21.30
2013,07,18,17,36,21.20
2013,07,18,17,37,21.00
2013,07,18,17,38,20.90
2013,07,18,17,39,20.90
2013,07,18,17,40,20.90
2013,07,18,17,41,21.00
2013,07,18,17,42,21.00
2013,07,18,17,43,21.10
2013,07,18,17,44,21.10
2013,07,18,17,45,21.10
2013,07,18,17,46,21.10
2013,07,18,17,47,21.00
2013,07,18,17,48,21.00
2013,07,18,17,49,21.00
2013,07,18,17,50,21.00
2013,07,18,17,51,21.00
2013,07,18,17,52,21.10
2013,07,18,17,53,21.00
2013,07,18,17,54,21.00
2013,07,18,17,55,20.90
2013,07,18,17,56,20.90
2013,07,18,17,57,20.90
2013,07,18,17,58,20.90
2013,07,18,17,59,21.00
2013,07,18,18,00,21.00
2013,07,18,18,01,21.00
2013,07,18,18,02,20.90
2013,07,18,18,03,20.90
2013,07,18,18,04,20.90
2013,07,18,18,05,20.90
2013,07,18,18,06,20.90
2013,07,18,18,07,20.90
2013,07,18,18,08,20.90
2013,07,18,18,09,20.80
2013,07,18,18,10,20.90
2013,07,18,18,11,20.90
2013,07,18,18,12,20.90
2013,07,18,18,13,20.90
2013,07,18,18,14,20.90
2013,07,18,18,15,20.90
2013,07,18,18,16,20.90
2013,07,18,18,17,20.80
2013,07,18,18,18,20.90
2013,07,18,18,19,20.90
2013,07,18,18,20,20.80
2013,07,18,18,21,20.80
2013,07,18,18,22,20.80
2013,07,18,18,23,20.80
2013,07,18,18,24,20.70
2013,07,18,18,25,20.70
2013,07,18,18,26,20.60
2013,07,18,18,27,20.60
2013,07,18,18,28,20.50
2013,07,18,18,29,20.50
2013,07,18,18,30,20.40
2013,07,18,18,31,20.40
2013,07,18,18,32,20.40
2013,07,18,18,33,20.40
2013,07,18,18,34,20.30
2013,07,18,18,35,20.40
2013,07,18,18,36,20.40
2013,07,18,18,37,20.40
2013,07,18,18,38,20.40
2013,07,18,18,39,20.40
2013,07,18,18,40,20.40
2013,07,18,18,41,20.40
2013,07,18,18,42,20.40
2013,07,18,18,43,20.40
2013,07,18,18,44,20.40
2013,07,18,18,45,20.40
2013,07,18,18,46,20.40
2013,07,18,18,47,20.40
2013,07,18,18,48,20.40
2013,07,18,18,49,20.40
2013,07,18,18,50,20.30
2013,07,18,18,51,20.30
2013,07,18,18,52,20.30
2013,07,18,18,53,20.30
2013,07,18,18,54,20.30
2013,07,18,18,55,20.20
2013,07,18,18,56,20.20
2013,07,18,18,57,20.20
2013,07,18,18,58,20.20
2013,07,18,18,59,20.20
2013,07,18,19,00,20.20
2013,07,18,19,01,20.20
2013,07,18,19,02,20.20
2013,07,18,19,03,20.20
2013,07,18,19,04,20.20
2013,07,18,19,05,20.20
2013,07,18,19,06,20.20
2013,07,18,19,07,20.10
2013,07,18,19,08,20.00
2013,07,18,19,09,19.90
2013,07,18,19,10,19.90
2013,07,18,19,11,19.90
2013,07,18,19,12,19.90
2013,07,18,19,13,19.90
2013,07,18,19,14,19.90
2013,07,18,19,15,19.90
2013,07,18,19,16,19.90
2013,07,18,19,17,19.90
2013,07,18,19,18,19.90
2013,07,18,19,19,19.90
2013,07,18,19,20,19.90
2013,07,18,19,21,19.90
2013,07,18,19,22,19.90
2013,07,18,19,23,19.90
2013,07,18,19,24,19.90
2013,07,18,19,25,19.90
2013,07,18,19,26,19.90
2013,07,18,19,27,19.90
2013,07,18,19,28,19.90
2013,07,18,19,29,19.90
2013,07,18,19,30,19.90
2013,07,18,19,31,19.90
2013,07,18,19,32,19.90
2013,07,18,19,33,19.90
2013,07,18,19,34,19.80
2013,07,18,19,35,19.80
2013,07,18,19,36,19.80
2013,07,18,19,37,19.80
2013,07,18,19,38,19.80
2013,07,18,19,39,19.70
2013,07,18,19,40,19.70
2013,07,18,19,41,19.70
2013,07,18,19,42,19.70
2013,07,18,19,43,19.70
2013,07,18,19,44,19.70
2013,07,18,19,45,19.60
2013,07,18,19,46,19.60
2013,07,18,19,47,19.60
2013,07,18,19,48,19.60
2013,07,18,19,49,19.60
2013,07,18,19,50,19.60
2013,07,18,19,51,19.60
2013,07,18,19,52,19.50
2013,07,18,19,53,19.50
2013,07,18,19,54,19.50
2013,07,18,19,55,19.50
2013,07,18,19,56,19.50
2013,07,18,19,57,19.50
2013,07,18,19,58,19.50
2013,07,18,19,59,19.50
2013,07,18,20,00,19.40
2013,07,18,20,01,19.40
2013,07,18,20,02,19.40
2013,07,18,20,03,19.40
2013,07,18,20,04,19.30
2013,07,18,20,05,19.30
2013,07,18,20,06,19.30
2013,07,18,20,07,19.30
2013,07,18,20,08,19.30
2013,07,18,20,09,19.30
2013,07,18,20,10,19.30
2013,07,18,20,11,19.30
2013,07,18,20,12,19.30
2013,07,18,20,13,19.30
2013,07,18,20,14,19.30
2013,07,18,20,15,19.30
2013,07,18,20,16,19.30
2013,07,18,20,17,19.30
2013,07,18,20,18,19.30
2013,07,18,20,19,19.20
2013,07,18,20,20,19.20
2013,07,18,20,21,19.20
2013,07,18,20,22,19.10
2013,07,18,20,23,19.10
2013,07,18,20,24,19.10
2013,07,18,20,25,19.10
2013,07,18,20,26,19.10
2013,07,18,20,27,19.10
2013,07,18,20,28,19.10
2013,07,18,20,29,19.10
2013,07,18,20,30,19.10
2013,07,18,20,31,19.10
2013,07,18,20,32,19.00
2013,07,18,20,33,18.90
2013,07,18,20,34,18.90
2013,07,18,20,35,18.80
2013,07,18,20,36,18.80
2013,07,18,20,37,18.70
2013,07,18,20,38,18.60
2013,07,18,20,39,18.60
2013,07,18,20,40,18.50
2013,07,18,20,41,18.50
2013,07,18,20,42,18.50
2013,07,18,20,43,18.40
2013,07,18,20,44,18.40
2013,07,18,20,45,18.40
2013,07,18,20,46,18.40
2013,07,18,20,47,18.40
2013,07,18,20,48,18.40
2013,07,18,20,49,18.40
2013,07,18,20,50,18.40
2013,07,18,20,51,18.40
2013,07,18,20,52,18.40
2013,07,18,20,53,18.40
2013,07,18,20,54,18.40
2013,07,18,23,45,15.10
2013,07,18,23,46,15.10
2013,07,18,23,47,15.10
2013,07,18,23,48,15.10
2013,07,18,23,49,15.00
2013,07,18,23,50,15.00
2013,07,18,23,51,15.00
2013,07,18,23,52,15.00
2013,07,18,23,53,15.00
2013,07,18,23,54,15.00
2013,07,18,23,55,14.90
2013,07,18,23,56,14.90
2013,07,18,23,57,14.90
2013,07,18,23,58,14.90
2013,07,18,23,59,14.90
